Theta_e
333 328 325 320 305 301 297 298 301 301 300 303 307 304 301 305 303 299 313 316 321 322 328 328 333 336 338 341 340 341 342 342 343 344 343 342 341 341 340 339 339 340 342 344 345 346 346 345 346
323 323 321 315 300 296 296 300 299 302 304 304 305 304 301 301 308 307 306 314 319 321 323 325 330 332 335 336 336 336 338 338 338 339 339 337 334 334 335 334 334 335 337 338 339 341 340 340 340
322 321 313 307 301 295 295 299 300 302 303 302 300 302 303 303 308 307 308 313 317 318 320 322 327 328 331 331 330 330 332 332 334 334 331 329 330 329 329 328 328 329 331 332 335 335 335 334 336
318 313 310 298 296 299 298 299 303 302 301 302 301 298 302 305 307 308 308 312 313 315 316 320 323 324 325 325 325 325 326 326 330 326 324 323 323 321 322 322 322 322 323 325 330 330 329 329 330
314 311 301 298 298 298 300 302 303 301 301 301 301 298 300 305 307 305 303 308 310 310 312 315 320 321 321 321 321 321 321 321 323 320 319 317 317 317 317 318 318 319 319 320 322 321 321 321 323
307 306 297 295 298 300 300 302 301 301 302 301 300 299 300 305 304 302 301 301 306 308 310 311 315 317 317 317 317 318 317 317 316 315 315 314 314 314 314 315 316 316 316 317 317 317 317 317 317
305 304 299 299 298 299 301 303 299 301 301 300 301 297 299 301 304 303 301 300 301 304 306 306 306 309 312 312 313 314 314 313 312 311 311 310 309 309 310 310 313 313 314 314 315 315 315 315 315
305 302 298 298 297 298 301 301 300 301 300 304 304 298 298 302 304 302 300 299 298 300 301 301 302 304 303 303 309 310 310 309 308 307 306 304 308 307 307 305 308 309 311 311 312 312 312 312 313
310 298 296 299 298 299 301 298 301 299 298 300 303 300 300 305 302 299 297 298 297 299 299 299 300 300 302 301 304 306 307 306 306 305 304 306 300 299 301 304 306 307 308 309 309 310 310 309 309
303 300 300 301 300 298 301 300 300 297 298 298 300 301 302 302 299 297 296 296 296 295 296 297 298 298 299 299 299 300 301 300 300 301 300 300 299 298 301 304 305 305 305 305 306 307 306 304 301
304 299 302 302 302 302 300 300 302 298 297 300 300 301 300 299 298 297 297 297 297 296 296 297 298 298 297 296 298 298 299 298 298 298 298 299 299 297 297 297 297 297 301 297 297 297 297 297 298
299 304 304 305 303 301 299 301 300 300 300 302 301 301 300 299 298 298 298 299 298 297 296 296 296 297 297 298 297 297 297 297 297 297 297 296 296 295 294 294 294 294 295 293 293 294 295 295 297
300 302 304 303 302 301 302 299 299 299 302 304 304 302 300 300 299 299 300 300 299 298 296 295 295 295 297 296 296 296 295 296 296 296 295 294 294 293 293 293 293 292 292 292 291 292 293 293 295
301 301 301 302 302 302 299 298 299 300 303 303 303 300 300 300 300 300 300 300 300 299 296 295 295 295 296 295 295 295 295 295 295 295 293 293 293 291 291 291 291 291 291 291 291 291 291 292 293
301 296 299 300 301 299 299 295 296 301 300 300 301 301 300 300 301 301 302 300 301 299 296 295 294 295 294 295 295 295 295 295 294 294 293 292 292 290 289 290 289 290 290 290 290 290 290 290 292
295 295 291 298 300 298 297 291 299 302 300 299 298 298 300 300 301 301 301 301 300 297 295 295 296 295 294 293 294 294 293 293 293 293 292 292 291 290 289 289 289 289 289 288 288 288 288 288 289
295 289 292 296 300 297 295 292 298 299 299 297 297 298 299 300 301 300 301 299 298 296 294 294 293 293 293 293 293 293 292 292 291 291 290 291 291 290 289 288 288 288 288 287 288 287 287 286 287
289 290 293 292 296 296 293 293 297 299 298 297 298 299 299 300 300 302 300 300 298 296 294 293 293 292 292 292 291 291 291 291 290 290 290 290 290 290 288 287 287 287 287 286 287 286 286 286 287
295 293 292 296 298 294 293 294 296 298 298 297 299 300 300 299 300 301 301 298 297 295 293 293 291 291 292 290 289 288 289 289 288 289 290 289 289 288 287 286 286 286 285 285 286 285 285 284 286
293 291 291 295 297 293 292 293 296 297 298 299 299 300 300 297 298 298 298 297 296 294 293 292 292 291 292 291 290 288 288 288 288 289 289 289 288 288 286 285 284 284 284 284 284 285 284 284 285
292 290 291 291 294 291 288 288 291 295 298 299 299 300 298 297 297 295 296 296 294 292 292 292 292 291 291 290 290 287 286 286 285 286 286 287 288 287 286 285 284 284 284 283 283 283 283 281 282
289 294 294 292 288 284 289 283 289 292 293 295 296 298 295 296 297 296 294 294 293 292 292 292 292 291 291 290 289 285 284 282 284 285 286 286 287 286 285 285 284 283 283 282 283 284 282 281 280
291 292 290 290 288 286 286 283 287 292 291 293 295 298 297 297 297 295 295 294 293 292 292 292 291 291 291 290 289 286 284 284 284 284 284 284 284 285 284 284 283 282 282 282 282 282 282 281 280
292 290 289 286 285 280 286 285 284 288 291 292 294 296 295 296 295 294 294 294 293 291 291 291 290 290 290 289 288 286 285 284 283 282 282 282 283 283 283 283 282 281 281 281 281 281 281 280 281
289 287 280 278 277 280 287 284 289 291 292 293 294 295 295 296 293 293 292 291 291 291 291 291 290 289 289 288 287 286 286 285 283 283 282 282 281 280 280 281 280 280 280 280 280 280 279 279 279
287 288 281 275 277 282 282 281 286 294 296 295 295 294 295 294 294 293 292 291 291 291 290 290 289 288 288 287 286 286 286 286 284 283 282 281 280 280 280 279 279 279 279 279 279 278 278 279 279
288 284 289 282 277 277 285 287 291 292 293 293 292 292 292 293 294 293 292 291 290 290 290 290 289 289 288 287 286 286 285 283 283 281 280 280 279 280 278 278 277 278 278 278 277 277 277 278 278
287 289 282 283 273 272 282 284 286 288 290 290 290 290 291 292 293 293 293 292 291 291 290 290 290 288 288 287 286 285 284 282 281 280 279 278 278 277 277 277 277 277 277 277 276 276 277 277 277
283 283 285 286 283 278 278 283 287 289 290 290 290 292 293 293 292 293 294 293 291 290 290 289 288 287 287 285 285 283 282 281 279 279 278 277 277 277 276 276 276 276 276 276 275 275 275 275 275
289 288 288 283 281 280 283 284 294 290 291 292 292 293 293 294 295 293 293 292 290 290 289 288 288 287 286 285 283 282 280 279 278 277 276 277 276 276 276 275 275 275 274 274 274 273 274 273 273
Wind_Speed
5 8 5 2 1 3 6 5 4 5 0 4 7 4 2 4 2 3 4 5 9 6 10 8 10 10 12 13 14 13 12 12 11 14 14 14 14 14 13 12 13 12 12 12 13 12 13 14 12
6 4 2 4 2 4 1 8 4 5 6 6 7 5 2 3 6 8 7 7 9 6 9 7 9 11 11 11 11 12 11 9 9 10 11 12 9 9 10 11 12 12 12 12 11 12 13 14 13
7 4 2 3 5 6 2 4 8 8 6 4 2 2 5 3 8 10 7 9 9 7 8 6 10 11 12 12 11 11 11 11 11 13 11 11 11 12 12 12 12 12 13 12 12 12 12 12 12
3 2 4 2 10 4 4 4 11 8 2 3 0 3 5 2 4 10 10 9 9 8 8 7 9 10 11 12 11 11 11 11 12 12 12 12 11 12 12 12 12 13 13 13 12 13 13 13 13
2 4 4 6 11 3 5 4 8 8 9 8 4 3 4 4 11 11 10 8 9 8 8 6 9 10 11 11 10 10 11 11 11 11 11 11 12 12 13 13 13 14 14 13 13 13 14 14 13
3 3 4 6 5 5 4 5 4 7 8 6 6 5 5 10 10 9 8 8 8 8 8 7 7 9 10 10 10 10 11 11 11 11 11 12 13 13 13 14 14 14 14 14 14 14 13 14 14
3 2 7 9 8 4 5 7 5 7 7 8 2 3 4 9 9 9 9 9 8 8 7 8 7 8 10 9 9 10 10 11 11 10 10 11 11 12 13 13 13 14 15 15 16 16 17 16 14
3 2 6 6 4 5 4 5 3 5 4 5 7 6 4 10 11 9 8 8 8 8 7 7 7 7 7 6 9 10 10 10 10 9 7 3 9 10 11 11 11 11 13 12 14 15 15 15 15
2 2 6 7 1 0 5 4 5 2 2 3 7 2 4 14 11 8 7 7 7 7 8 7 7 7 8 8 7 10 11 9 8 7 2 1 5 5 6 7 10 12 14 13 15 14 15 17 17
3 3 5 3 5 4 2 7 5 3 6 6 5 7 7 11 10 10 10 10 9 9 7 7 7 7 7 7 7 7 6 4 4 4 5 3 5 2 4 5 11 12 14 15 16 17 17 13 5
6 5 1 4 2 4 5 5 6 6 8 9 13 12 14 11 12 13 13 11 13 9 7 8 8 7 7 5 5 3 3 3 4 6 3 3 4 3 3 3 3 4 8 4 7 6 4 7 6
4 10 10 2 3 1 4 3 6 10 12 1 4 3 16 18 17 18 16 14 11 12 10 9 9 8 7 5 4 5 4 3 3 4 3 3 3 3 3 3 4 4 3 6 5 4 5 6 7
8 9 8 6 5 5 7 10 8 13 11 13 9 4 13 14 16 14 14 11 10 13 12 11 9 8 7 7 4 4 5 4 5 5 3 3 4 3 3 3 3 3 4 4 4 5 5 6 6
5 7 11 7 9 7 6 7 5 10 15 14 10 12 11 14 16 12 13 14 14 13 12 12 10 9 8 6 7 5 5 5 4 4 5 4 3 3 3 3 3 4 4 4 4 4 4 5 5
4 8 9 12 10 6 5 11 15 20 4 9 10 10 12 14 11 19 18 16 14 11 12 13 10 9 9 8 7 5 5 5 5 5 5 4 4 4 3 3 2 3 2 3 3 4 5 5 5
4 5 5 4 11 7 10 13 10 16 12 13 11 10 10 13 16 12 10 13 10 10 13 12 12 10 9 7 6 5 5 4 5 5 5 5 5 4 3 2 2 3 3 3 3 4 4 4 5
9 7 9 10 10 8 10 9 7 4 6 8 11 12 12 13 14 12 13 12 11 12 12 13 10 10 9 8 6 6 7 4 5 5 4 6 5 4 3 2 1 3 2 3 3 4 4 5 5
7 7 11 14 7 7 8 17 13 11 7 12 13 13 14 14 14 15 13 12 13 13 12 12 9 9 8 6 6 4 5 4 5 5 5 7 5 5 3 2 3 3 2 3 3 4 3 4 6
13 16 17 22 9 10 16 19 15 12 13 12 15 17 15 13 10 15 16 12 14 14 14 14 13 10 9 5 6 5 6 4 4 4 7 7 6 6 4 3 3 2 2 1 3 3 5 3 4
9 13 22 20 11 8 10 14 11 9 17 20 17 19 19 8 7 12 14 12 16 16 14 15 15 13 10 8 5 4 5 4 4 4 6 6 7 6 5 5 3 2 1 2 2 3 3 3 2
13 12 16 17 11 6 4 8 12 9 19 16 18 22 11 11 10 10 12 14 15 16 18 17 17 16 14 9 6 4 4 4 3 4 5 5 7 6 5 5 4 2 1 2 2 2 3 3 3
22 11 13 13 6 8 5 14 9 6 10 11 16 19 9 11 8 11 12 14 17 15 14 16 16 16 14 12 10 10 8 7 5 5 4 6 8 7 7 6 4 3 2 2 2 3 3 2 4
8 2 3 3 5 6 4 11 7 10 10 12 12 16 10 10 12 13 16 17 15 13 15 14 14 15 15 15 13 10 7 5 4 4 8 6 6 7 7 6 5 3 2 3 3 4 5 3 3
4 1 3 2 2 12 12 12 3 8 9 6 9 14 11 8 9 9 9 13 13 12 12 14 16 16 14 14 13 15 14 9 6 7 6 5 5 5 7 7 6 6 5 4 3 4 4 4 4
4 3 4 5 1 17 11 12 17 5 8 11 12 14 9 10 10 10 13 14 14 17 16 14 16 16 14 14 15 14 13 11 13 10 8 7 5 4 7 7 6 5 4 3 2 3 5 4 4
10 10 8 8 9 22 5 12 7 12 12 11 15 10 9 10 10 10 12 13 15 15 17 17 18 16 16 16 16 13 12 10 9 9 7 6 5 6 7 6 6 4 4 3 3 3 4 5 4
6 8 4 2 3 4 12 13 9 8 12 11 9 8 8 9 9 10 9 12 12 14 19 19 19 19 18 17 14 14 12 10 10 9 7 6 6 5 7 7 6 4 3 4 4 3 4 5 4
4 0 3 2 3 9 20 16 17 7 13 9 6 8 7 9 9 9 10 12 13 14 15 17 18 19 16 16 15 13 12 9 8 8 9 9 7 7 7 6 5 4 4 3 4 3 4 4 4
2 4 5 2 7 10 13 14 3 5 3 7 7 5 7 10 11 13 12 12 13 12 15 15 15 16 16 15 13 12 11 10 9 10 9 8 7 7 7 6 4 3 2 3 4 4 4 6 7
5 13 15 13 19 5 13 28 8 2 7 12 8 8 7 8 11 11 13 13 13 14 13 17 16 16 16 13 13 12 10 10 11 10 9 8 8 7 7 6 5 5 5 5 5 4 5 7 9
Wind_Direction
279 233 250 301 281 210 252 150 48 100 119 52 307 67 351 77 339 197 131 111 101 116 111 77 76 76 70 69 73 68 65 63 67 72 70 62 53 49 46 48 42 35 30 26 24 28 27 18 14
300 274 269 277 248 257 313 99 144 147 67 75 25 35 349 63 95 118 123 173 116 116 86 81 83 86 88 90 81 78 80 90 81 83 72 69 60 57 53 48 42 38 30 22 12 16 20 16 8
278 280 270 201 234 262 41 124 143 88 91 125 159 44 344 80 102 139 109 141 124 107 102 97 102 100 96 91 85 86 89 85 88 84 79 74 69 62 56 49 42 35 30 26 24 20 19 15 8
293 208 268 260 267 318 35 84 109 112 100 323 92 190 81 2 117 124 137 151 120 110 103 107 104 101 101 99 97 94 92 90 88 84 78 69 65 58 54 47 40 35 31 22 27 22 16 9 10
244 264 255 225 248 114 99 344 122 161 159 174 180 186 146 159 99 124 144 140 133 117 117 109 121 118 111 107 105 101 96 92 92 89 81 73 63 55 49 43 36 34 29 24 24 13 7 0 359
276 229 279 260 327 120 111 157 179 184 175 106 168 286 141 133 136 151 150 147 140 123 115 125 111 109 104 103 106 103 100 96 90 84 81 73 68 59 50 41 38 34 26 25 21 13 7 358 350
255 290 260 286 308 322 155 126 211 213 204 174 122 243 117 160 162 154 162 143 136 133 144 151 138 110 102 98 103 105 100 95 88 84 81 74 69 62 51 41 34 31 22 18 14 8 2 357 352
322 286 272 268 282 332 99 148 65 273 244 9 128 221 192 178 154 145 158 148 145 151 160 155 133 151 132 112 114 115 111 104 97 91 89 95 78 64 63 39 32 35 24 24 15 10 2 357 351
229 272 266 276 44 348 111 218 158 117 233 209 180 3 91 135 131 150 160 167 169 166 170 157 161 160 138 135 139 130 130 131 128 117 104 64 72 36 79 48 34 33 25 24 17 11 7 7 356
223 235 264 39 342 288 174 201 211 187 221 234 198 113 120 140 154 175 183 191 188 180 185 163 167 164 156 150 162 163 164 150 114 88 74 51 92 84 60 48 41 23 30 21 16 12 11 358 345
222 230 326 298 296 344 274 272 213 228 252 223 210 196 166 165 179 193 199 199 194 179 176 173 171 167 163 142 152 158 145 138 118 92 84 88 90 50 42 43 27 17 29 20 14 6 2 351 347
272 243 253 286 121 240 238 261 265 220 229 179 39 6 163 177 189 198 202 202 184 181 175 173 173 162 170 149 162 159 137 140 134 113 74 88 84 58 50 52 38 33 27 22 10 358 348 340 336
229 260 284 251 176 234 283 260 248 255 246 237 231 161 173 191 201 204 204 199 188 184 172 167 164 166 162 157 183 154 136 148 132 125 97 67 94 71 59 57 45 34 39 24 354 348 341 334 321
9 311 292 275 223 216 224 262 223 239 233 244 237 196 200 198 203 202 203 201 196 179 169 162 164 166 157 179 163 155 152 139 144 126 123 95 100 92 69 60 40 41 39 357 339 326 321 311 313
290 303 272 245 220 231 163 277 229 244 215 232 236 229 203 212 204 208 206 203 193 180 159 163 160 166 162 179 163 154 157 149 147 133 129 132 93 85 72 82 65 67 28 343 335 334 334 329 323
229 233 282 273 188 159 137 264 226 244 209 221 226 239 232 219 216 212 202 194 187 162 166 159 167 169 163 168 160 155 147 150 147 139 153 143 128 112 113 111 84 54 22 354 350 334 342 322 317
226 248 236 271 176 133 179 253 277 78 152 236 224 229 236 226 217 200 187 176 177 165 165 162 161 163 163 163 158 155 151 159 155 151 154 155 138 136 144 147 102 57 21 0 348 359 344 321 313
253 252 284 277 201 196 205 250 265 272 230 248 256 251 241 241 225 200 177 169 165 162 158 158 161 158 163 156 153 140 140 170 158 164 164 146 150 158 162 123 78 70 38 4 4 332 297 290 299
258 264 262 269 266 182 229 246 247 250 272 256 259 261 252 249 238 189 174 161 157 156 159 163 162 169 168 162 161 160 174 181 170 172 156 154 161 172 163 123 76 47 41 336 313 286 301 311 313
270 278 272 277 301 175 256 258 259 253 259 258 260 267 266 237 237 159 162 157 164 162 163 166 172 175 178 170 171 160 161 186 168 164 159 171 167 177 153 138 142 161 143 320 309 303 327 294 2
240 240 260 266 279 226 286 262 249 240 250 260 261 255 249 219 212 169 161 166 161 167 171 174 176 179 181 170 159 137 102 94 131 170 169 174 166 163 158 159 161 166 131 251 269 326 302 287 308
269 245 259 271 272 245 123 286 219 227 257 230 249 265 241 221 190 169 162 166 172 176 173 178 179 182 181 173 172 171 176 168 192 172 162 169 164 172 172 163 159 166 187 252 259 249 241 261 266
264 116 282 291 268 313 223 275 234 187 239 235 242 255 253 236 179 165 172 172 176 171 179 182 181 186 186 187 176 173 183 180 158 148 151 157 167 171 169 163 160 172 197 223 242 278 269 243 244
131 289 239 240 221 256 206 216 183 191 210 226 228 250 249 168 156 156 163 162 173 172 178 185 188 193 187 186 181 180 184 176 156 155 160 169 177 178 174 167 162 178 197 220 231 251 272 267 263
192 142 295 305 232 260 179 231 245 195 183 192 215 239 202 160 159 164 162 171 178 184 185 184 190 196 189 185 190 190 184 181 179 172 167 168 167 173 178 163 173 174 177 209 233 258 261 267 259
181 177 173 228 251 278 149 252 241 214 227 211 208 233 154 163 167 179 179 184 188 184 186 187 193 195 192 188 193 192 190 189 180 173 168 173 171 165 158 153 156 166 183 210 228 234 241 248 247
181 200 200 257 73 319 264 281 294 248 228 220 196 159 173 180 181 180 177 184 188 190 192 193 194 199 196 195 192 193 190 184 179 166 158 161 156 156 154 156 159 170 196 216 228 230 244 255 265
190 244 111 235 246 243 278 279 270 233 223 216 182 210 210 199 183 190 191 194 198 196 194 198 199 199 196 194 193 190 188 177 166 161 164 159 159 157 156 153 165 186 194 203 232 238 247 255 265
160 240 226 245 183 235 267 275 206 86 45 164 215 217 216 197 198 203 199 197 191 191 195 197 199 195 200 191 187 186 180 171 161 169 163 162 157 157 153 157 175 193 211 228 235 238 260 267 265
241 220 204 221 237 242 235 259 261 112 168 152 171 199 223 215 205 198 202 187 187 195 189 196 195 199 198 185 180 183 166 167 167 164 161 156 152 150 149 159 171 193 214 231 238 252 261 264 267